Location: Unspecified
(51.6250°N, 0.8230°E)
Time: 06:11:23
(UTC+00:00)

ISS - Visible Passes

Search period start: 19 March 2019 00:00
Search period end: 29 March 2019 00:00
Orbit: 406 x 411 km, 51.6° (Epoch: 19 March)

Date Brightness Start Highest point End Pass type
(mag) Time Alt. Az. Time Alt. Az. Time Alt. Az.
21 Mar -1.4 19:28:34 10° SSE 19:28:51 11° SSE 19:28:51 11° SSE visible
22 Mar -2.0 20:12:00 10° SW 20:13:29 21° SSW 20:13:29 21° SSW visible
23 Mar -2.4 19:21:26 10° SSW 19:24:05 22° SE 19:25:08 19° ESE visible
23 Mar -1.3 20:57:00 10° WSW 20:57:53 17° WSW 20:57:53 17° WSW visible
24 Mar -3.7 20:06:01 10° WSW 20:09:15 54° SSE 20:09:20 53° SSE visible
25 Mar -3.2 19:15:09 10° SW 19:18:15 39° SSE 19:20:36 15° E visible
25 Mar -2.3 20:51:21 10° W 20:53:21 34° W 20:53:21 34° W visible
26 Mar -3.9 20:00:16 10° WSW 20:03:34 78° S 20:04:30 43° E visible
26 Mar -0.7 21:36:49 10° W 21:37:15 13° W 21:37:15 13° W visible
27 Mar -3.7 19:09:13 10° WSW 19:12:29 62° SSE 19:15:34 11° E visible
27 Mar -3.1 20:45:42 10° W 20:48:18 52° W 20:48:18 52° W visible
28 Mar -3.9 19:54:34 10° W 19:57:52 89° N 19:59:17 32° E visible
28 Mar -1.1 21:31:08 10° W 21:32:01 17° W 21:32:01 17° W visible
